This demonstration page uses our WeatherBlox Daily Observations layout. Learn more.

Left ArrowRight Arrow

34.74481, -87.66753

Hourly Observations for March 13, 2018

Temp ( °F °C ) Dew Point ( °F °C ) Humidity (%) Winds ( mph kmh ) Pressure ( in mb ) Visibility ( mi km ) Precip ( " mm )
12:53 am 00:53 Clear 38 3.3 26 -3.3 62 62 N 5 7 30.22 1023 10 16 0.00 0.00
1:53 am 01:53 Clear 38 3.3 27 -2.8 65 65 NW 6 9 30.22 1024 10 16 0.00 0.00
2:53 am 02:53 Clear 36 2.2 27 -2.8 70 70 NNW 5 7 30.21 1023 10 16 0.00 0.00
3:53 am 03:53 Clear 34 1.1 27 -2.8 76 76 NW 6 9 30.21 1023 10 16 0.00 0.00
4:53 am 04:53 Clear 34 1.1 27 -2.8 76 76 NNW 6 9 30.21 1023 9 14 0.00 0.00
5:53 am 05:53 Clear 34 1.1 28 -2.2 79 79 NNW 5 7 30.21 1023 9 14 0.00 0.00
6:53 am 06:53 Clear 34 1.1 28 -2.2 79 79 NW 3 6 30.22 1024 8 13 0.00 0.00
7:53 am 07:53 Hazy 33 0.6 28 -2.2 82 82 WSW 5 7 30.24 1024 6 10 0.00 0.00
8:53 am 08:53 Sunny 38 3.3 30 -1.1 73 73 WNW 6 9 30.24 1024 8 13 0.00 0.00
9:53 am 09:53 Sunny 42 5.6 32 0 68 68 WNW 12 19 30.24 1024 10 16 0.00 0.00
10:53 am 10:53 Sunny 46 7.8 33 0.6 61 61 W 10 17 30.24 1024 10 16 0.00 0.00
11:53 am 11:53 Sunny 49 9.4 32 0 52 52 W 14 22 30.22 1023 10 16 0.00 0.00
12:53 pm 12:53 Sunny 52 11.1 29 -1.7 41 41 WNW 14 22 30.19 1022 10 16 0.00 0.00
1:53 pm 13:53 Sunny 54 12.2 27 -2.8 35 35 WNW 17 28 30.15 1021 10 16 0.00 0.00
2:53 pm 14:53 Sunny 55 12.8 26 -3.3 33 33 NW 12 19 30.13 1020 10 16 0.00 0.00
3:53 pm 15:53 Sunny 55 12.8 25 -3.9 31 31 WNW 17 28 30.11 1020 10 16 0.00 0.00
4:53 pm 16:53 Sunny 55 12.8 22 -5.6 28 28 WNW 18 30 30.10 1019 10 16 0.00 0.00
5:53 pm 17:53 Sunny 53 11.7 22 -5.6 30 30 NW 14 22 30.11 1020 10 16 0.00 0.00
6:53 pm 18:53 Sunny 50 10 21 -6.1 32 32 NW 10 17 30.12 1020 10 16 0.00 0.00
7:53 pm 19:53 Clear 48 8.9 21 -6.1 34 34 NW 9 15 30.15 1021 10 16 0.00 0.00
8:53 pm 20:53 Clear 46 7.8 24 -4.4 42 42 NW 14 22 30.17 1022 10 16 0.00 0.00
9:53 pm 21:53 Clear 44 6.7 26 -3.3 49 49 NNW 7 11 30.19 1022 10 16 0.00 0.00
10:53 pm 22:53 Clear 42 5.6 26 -3.3 53 53 NW 5 7 30.19 1022 10 16 0.00 0.00
11:53 pm 23:53 Clear 39 3.9 25 -3.9 57 57 WNW 5 7 30.19 1022 10 16 0.00 0.00

Powered by AerisWeather